Weather History for KD07 - June, 2013

Change the Weather History Date:

Tuesday, June 25, 2013

  Actual Average Record
Temperature  
Mean Temperature 73 °F 68 °F  
Max Temperature 83 °F 81 °F 98 °F (1999)
Min Temperature 62 °F 56 °F 43 °F (2004)
Degree Days  
Heating Degree Days 0 1  
Month to date heating degree days 73 84  
Since 1 June heating degree days 73 84  
Since 1 July heating degree days 7607 7703  
Cooling Degree Days 8 5  
Month to date cooling degree days 53 61  
Year to date cooling degree days 66 73  
Since 1 June cooling degree days 53 61  
Growing Degree Days 22 (Base 50)    
Moisture  
Dew Point 61 °F    
Average Humidity 70    
Maximum Humidity 93    
Minimum Humidity 46    
Precipitation  
Precipitation 0.00 in 0.14 in 0.75 in (2000)
Month to date precipitation 1.26 2.45  
Year to date precipitation 8.90 8.75  
Sea Level Pressure  
Sea Level Pressure 29.66 in    
Wind  
Wind Speed 13 mph (West)    
Max Wind Speed 28 mph    
Max Gust Speed 33 mph    
T = Trace of Precipitation, MM = Missing Value Source: NWS Daily Summary

Daily Weather History Graph

Daily Weather History Graph

Search for Another Location

Airport or City:

Trip Planner

Search our weather history database for the weather conditions in past years. The results will help you decide how hot, cold, wet, or windy it might be!

Date:

Astronomy

Jun. 25, 2013 Rise Set
Actual Time 5:02 AM MDT 8:39 PM MDT
Civil Twilight 4:25 AM MDT 9:16 PM MDT
Nautical Twilight 3:35 AM MDT 10:06 PM MDT
Astronomical Twilight 2:29 AM MDT 11:12 PM MDT
Moon 10:16 PM MDT (6/25) 7:52 AM MDT (6/25)
Length of Visible Light 16h 51m
Length of Day
15h 36m
Waning Gibbous, 92% of the Moon is Illuminated
Jun 25
Waning Gibbous
Jun 29
Last Quarter
Jul 8
New
Jul 15
First Quarter
Jul 22
Full

Hourly Weather History & Observations

Time (MDT) Temp. Heat Index Dew Point Humidity Pressure Visibility Wind Dir Wind Speed Gust Speed Precip Events Conditions
12:56 AM 66.0 °F - 63.0 °F 90% 29.60 in - SE 11.5 mph - N/A   Unknown
1:56 AM 66.0 °F - 64.0 °F 93% 29.59 in - SE 12.7 mph - N/A   Unknown
2:56 AM 64.9 °F - 63.0 °F 93% 29.59 in - SE 11.5 mph - N/A   Unknown
3:56 AM 64.9 °F - 63.0 °F 93% 29.59 in - SSE 10.4 mph - N/A   Unknown
4:56 AM 64.0 °F - 63.0 °F 96% 29.60 in - SSE 13.8 mph - N/A   Unknown
5:56 AM 64.0 °F - 63.0 °F 96% 29.61 in - SSE 16.1 mph - N/A   Unknown
6:56 AM 66.9 °F - 59.0 °F 76% 29.59 in - SSE 16.1 mph - N/A   Unknown
7:56 AM 69.1 °F - 60.1 °F 73% 29.60 in - South 11.5 mph - N/A   Unknown
8:56 AM 72.0 °F - 60.1 °F 66% 29.60 in - SSW 11.5 mph - N/A   Unknown
9:56 AM 79.0 °F - 60.1 °F 52% 29.59 in - SW 10.4 mph - N/A   Unknown
10:56 AM 75.9 °F - 61.0 °F 60% 29.62 in - SW 12.7 mph - N/A   Unknown
11:56 AM 78.1 °F - 57.0 °F 48% 29.64 in - West 18.4 mph - N/A   Unknown
12:56 PM 75.0 °F - 59.0 °F 57% 29.66 in - WNW 13.8 mph - N/A   Unknown
1:56 PM 77.0 °F - 60.1 °F 56% 29.67 in - WNW 13.8 mph 21.9 mph N/A   Unknown
2:56 PM 80.1 °F 81.7 °F 64.0 °F 58% 29.67 in - WNW 20.7 mph - N/A   Unknown
3:56 PM 81.0 °F 81.7 °F 61.0 °F 50% 29.68 in - NW 24.2 mph 32.2 mph N/A   Unknown
4:56 PM 82.0 °F 82.1 °F 59.0 °F 45% 29.69 in - NNW 15.0 mph 26.5 mph N/A   Unknown
5:56 PM 81.0 °F 81.7 °F 61.0 °F 50% 29.70 in - NNW 17.3 mph 25.3 mph N/A   Unknown
6:56 PM 79.0 °F - 60.1 °F 52% 29.72 in - NW 13.8 mph 23.0 mph N/A   Unknown
7:56 PM 73.9 °F - 61.0 °F 64% 29.74 in - NNW 10.4 mph - N/A   Unknown
8:56 PM 66.9 °F - 60.1 °F 79% 29.75 in - NW 8.1 mph - N/A   Unknown
9:56 PM 66.0 °F - 59.0 °F 78% 29.76 in - NNW 10.4 mph - N/A   Unknown
10:56 PM 63.0 °F - 57.9 °F 84% 29.77 in - NW 6.9 mph - N/A   Unknown
11:56 PM 64.0 °F - 59.0 °F 84% 29.76 in - NW 9.2 mph - N/A   Unknown